| time (UTC) | temp F | wind direction | speed MPH | gust MPH | rain 1hr in | rain 24hr in | rain mn in | humidity % | barometer mb |
| 20260503220726 | 72 | 359 | 6.0 | 22.0 | 0.00 | 0.00 | 0.00 | 54 | 1009.9 |
| 20260503220226 | 72 | 39 | 10.0 | 22.0 | 0.00 | 0.00 | 0.00 | 51 | 1010.0 |
| 20260503215225 | 72 | 15 | 13.0 | 20.0 | 0.00 | 0.00 | 0.00 | 52 | 1010.1 |
| 20260503214725 | 73 | 37 | 5.0 | 20.0 | 0.00 | 0.00 | 0.00 | 52 | 1010.2 |
| 20260503214225 | 73 | 359 | 8.0 | 19.0 | 0.00 | 0.00 | 0.00 | 51 | 1010.1 |
| 20260503213726 | 73 | 326 | 5.0 | 22.0 | 0.00 | 0.00 | 0.00 | 53 | 1010.2 |
| 20260503213225 | 73 | 14 | 14.0 | 22.0 | 0.00 | 0.00 | 0.00 | 52 | 1010.2 |
| 20260503212726 | 73 | 325 | 8.0 | 12.0 | 0.00 | 0.00 | 0.00 | 53 | 1010.2 |
| 20260503212226 | 74 | 331 | 3.0 | 12.0 | 0.00 | 0.00 | 0.00 | 52 | 1010.2 |
| 20260503211726 | 74 | 342 | 3.0 | 14.0 | 0.00 | 0.00 | 0.00 | 51 | 1010.2 |
| 20260503211225 | 74 | 296 | 6.0 | 22.0 | 0.00 | 0.00 | 0.00 | 51 | 1010.2 |
| 20260503210725 | 74 | 4 | 10.0 | 22.0 | 0.00 | 0.00 | 0.00 | 53 | 1010.3 |
| 20260503210226 | 74 | 299 | 5.0 | 22.0 | 0.00 | 0.00 | 0.00 | 53 | 1010.2 |
| 20260503205725 | 75 | 299 | 5.0 | 22.0 | 0.00 | 0.00 | 0.00 | 51 | 1010.3 |
| 20260503205225 | 75 | 296 | 8.0 | 10.0 | 0.00 | 0.00 | 0.00 | 51 | 1010.3 |
| 20260503204725 | 77 | 294 | 5.0 | 10.0 | 0.00 | 0.00 | 0.00 | 49 | 1010.3 |
| 20260503203724 | 81 | 290 | 5.0 | 10.0 | 0.00 | 0.00 | 0.00 | 44 | 1010.3 |
| 20260503202725 | 85 | 304 | 6.0 | 10.0 | 0.00 | 0.00 | 0.00 | 38 | 1010.3 |
| 20260503202224 | 86 | 36 | 3.0 | 10.0 | 0.00 | 0.00 | 0.00 | 35 | 1010.3 |
| 20260503201224 | 86 | 346 | 3.0 | 5.0 | 0.00 | 0.00 | 0.00 | 36 | 1010.5 |
| 20260503200724 | 85 | 135 | 2.0 | 9.0 | 0.00 | 0.00 | 0.00 | 38 | 1010.5 |
| 20260503200224 | 84 | 18 | 3.0 | 12.0 | 0.00 | 0.00 | 0.00 | 38 | 1010.6 |
| 20260503195725 | 84 | 359 | 5.0 | 12.0 | 0.00 | 0.00 | 0.00 | 37 | 1010.6 |
| 20260503194724 | 84 | 15 | 3.0 | 9.0 | 0.00 | 0.00 | 0.00 | 36 | 1010.9 |
| 20260503193724 | 84 | 319 | 6.0 | 7.0 | 0.00 | 0.00 | 0.00 | 39 | 1010.9 |
| 20260503192724 | 83 | 347 | 8.0 | 14.0 | 0.00 | 0.00 | 0.00 | 39 | 1011.0 |
| 20260503192223 | 83 | 14 | 5.0 | 14.0 | 0.00 | 0.00 | 0.00 | 40 | 1011.2 |
| 20260503191723 | 83 | 51 | 3.0 | 9.0 | 0.00 | 0.00 | 0.00 | 41 | 1011.1 |
| 20260503190723 | 82 | 316 | 3.0 | 14.0 | 0.00 | 0.00 | 0.00 | 40 | 1011.3 |
| 20260503190224 | 81 | 344 | 11.0 | 14.0 | 0.00 | 0.00 | 0.00 | 41 | 1011.3 |
| 20260503185723 | 81 | 316 | 3.0 | 5.0 | 0.00 | 0.00 | 0.00 | 40 | 1011.4 |
| 20260503185223 | 81 | 317 | 5.0 | 7.0 | 0.00 | 0.00 | 0.00 | 41 | 1011.4 |
| 20260503184723 | 80 | 352 | 5.0 | 12.0 | 0.00 | 0.00 | 0.00 | 41 | 1011.5 |
| 20260503184223 | 80 | 338 | 5.0 | 12.0 | 0.00 | 0.00 | 0.00 | 42 | 1011.5 |
| 20260503183223 | 81 | 32 | 3.0 | 9.0 | 0.00 | 0.00 | 0.00 | 43 | 1011.6 |
| 20260503182723 | 80 | 22 | 3.0 | 5.0 | 0.00 | 0.00 | 0.00 | 43 | 1011.5 |
| 20260503182222 | 80 | 123 | 0.0 | 3.0 | 0.00 | 0.00 | 0.00 | 43 | 1011.6 |
| 20260503181722 | 79 | 36 | 2.0 | 7.0 | 0.00 | 0.00 | 0.00 | 44 | 1011.6 |
| 20260503180723 | 79 | 15 | 3.0 | 10.0 | 0.00 | 0.00 | 0.00 | 43 | 1011.6 |
| 20260503175722 | 79 | 44 | 5.0 | 5.0 | 0.00 | 0.00 | 0.00 | 44 | 1011.6 |
| 20260503175223 | 78 | 169 | 0.0 | 7.0 | 0.00 | 0.00 | 0.00 | 46 | 1011.5 |
| 20260503174722 | 78 | 357 | 5.0 | 7.0 | 0.00 | 0.00 | 0.00 | 44 | 1011.6 |
| 20260503174222 | 78 | 334 | 2.0 | 7.0 | 0.00 | 0.00 | 0.00 | 45 | 1011.5 |
| 20260503173722 | 77 | 66 | 3.0 | 7.0 | 0.00 | 0.00 | 0.00 | 45 | 1011.6 |
| 20260503173222 | 78 | 66 | 3.0 | 7.0 | 0.00 | 0.00 | 0.00 | 45 | 1011.6 |
| 20260503172722 | 78 | 44 | 3.0 | 9.0 | 0.00 | 0.00 | 0.00 | 43 | 1011.5 |
| 20260503172222 | 78 | 7 | 6.0 | 9.0 | 0.00 | 0.00 | 0.00 | 45 | 1011.6 |
| 20260503171222 | 77 | 62 | 3.0 | 9.0 | 0.00 | 0.00 | 0.00 | 45 | 1011.6 |
| 20260503170723 | 77 | 305 | 3.0 | 9.0 | 0.00 | 0.00 | 0.00 | 44 | 1011.6 |
| 20260503170221 | 76 | 86 | 2.0 | 3.0 | 0.00 | 0.00 | 0.00 | 47 | 1011.5 |